| time (UTC) | temp F | wind direction | speed MPH | gust MPH | rain 1hr in | rain 24hr in | rain mn in | humidity % | barometer mb |
| 20260508191833 | 76 | 76 | 3.0 | 9.0 | 0.00 | 0.00 | 0.00 | 79 | 1012.8 |
| 20260508191556 | 76 | 84 | 3.0 | 9.0 | 0.00 | 0.00 | 0.00 | 80 | 1012.8 |
| 20260508191550 | 75 | 134 | 3.0 | 8.0 | 0.00 | 0.00 | 0.00 | 80 | 1012.9 |
| 20260508190334 | 75 | 113 | 4.0 | 8.0 | 0.00 | 0.00 | 0.00 | 80 | 1012.9 |
| 20260508185833 | 75 | 150 | 3.0 | 8.0 | 0.00 | 0.00 | 0.00 | 81 | 1012.9 |
| 20260508185332 | 75 | 98 | 3.0 | 9.0 | 0.00 | 0.00 | 0.00 | 80 | 1013.0 |
| 20260508184833 | 75 | 130 | 4.0 | 9.0 | 0.00 | 0.00 | 0.00 | 80 | 1012.9 |
| 20260508184333 | 75 | 17 | 3.0 | 8.0 | 0.00 | 0.00 | 0.00 | 80 | 1012.9 |
| 20260508184100 | 75 | 52 | 3.0 | 8.0 | 0.00 | 0.00 | 0.00 | 80 | 1012.9 |
| 20260508183332 | 75 | 70 | 2.0 | 6.0 | 0.00 | 0.00 | 0.00 | 80 | 1013.0 |
| 20260508182834 | 74 | 60 | 2.0 | 7.0 | 0.00 | 0.00 | 0.00 | 80 | 1013.2 |
| 20260508182332 | 74 | 135 | 2.0 | 7.0 | 0.00 | 0.00 | 0.00 | 81 | 1013.3 |
| 20260508181832 | 73 | 130 | 2.0 | 7.0 | 0.00 | 0.00 | 0.00 | 82 | 1013.3 |
| 20260508181333 | 72 | 129 | 1.0 | 3.0 | 0.00 | 0.00 | 0.00 | 82 | 1013.5 |
| 20260508180833 | 72 | 132 | 2.0 | 6.0 | 0.00 | 0.00 | 0.00 | 83 | 1013.6 |
| 20260508180333 | 72 | 134 | 2.0 | 6.0 | 0.00 | 0.00 | 0.00 | 82 | 1013.7 |
| 20260508175833 | 71 | 109 | 2.0 | 4.0 | 0.00 | 0.00 | 0.00 | 83 | 1013.8 |
| 20260508175332 | 71 | 103 | 2.0 | 4.0 | 0.00 | 0.00 | 0.00 | 83 | 1013.7 |
| 20260508175325 | 71 | 67 | 1.0 | 5.0 | 0.00 | 0.00 | 0.00 | 83 | 1013.8 |
| 20260508174333 | 71 | 90 | 2.0 | 5.0 | 0.00 | 0.00 | 0.00 | 83 | 1013.7 |
| 20260508173834 | 71 | 37 | 2.0 | 5.0 | 0.00 | 0.00 | 0.00 | 83 | 1013.8 |
| 20260508173333 | 71 | 337 | 2.0 | 5.0 | 0.00 | 0.00 | 0.00 | 82 | 1013.9 |
| 20260508172833 | 71 | 21 | 2.0 | 6.0 | 0.00 | 0.00 | 0.00 | 82 | 1013.9 |
| 20260508172334 | 71 | 348 | 3.0 | 6.0 | 0.00 | 0.00 | 0.00 | 82 | 1014.0 |
| 20260508171832 | 70 | 17 | 3.0 | 7.0 | 0.00 | 0.00 | 0.00 | 83 | 1014.0 |
| 20260508171332 | 70 | 343 | 3.0 | 7.0 | 0.00 | 0.00 | 0.00 | 83 | 1014.0 |
| 20260508170830 | 70 | 47 | 2.0 | 5.0 | 0.00 | 0.00 | 0.00 | 82 | 1014.0 |
| 20260508170324 | 70 | 17 | 1.0 | 4.0 | 0.00 | 0.00 | 0.00 | 83 | 1014.2 |
| 20260508165816 | 70 | 87 | 0.0 | 2.0 | 0.00 | 0.00 | 0.00 | 83 | 1014.5 |
| 20260508165310 | 69 | 87 | 1.0 | 3.0 | 0.00 | 0.00 | 0.00 | 85 | 1014.5 |
| 20260508164807 | 69 | 88 | 1.0 | 3.0 | 0.00 | 0.00 | 0.00 | 84 | 1014.6 |
| 20260508164307 | 69 | 85 | 1.0 | 3.0 | 0.00 | 0.00 | 0.00 | 84 | 1014.7 |
| 20260508163807 | 69 | 85 | 1.0 | 3.0 | 0.00 | 0.00 | 0.00 | 84 | 1014.8 |
| 20260508163305 | 68 | 81 | 1.0 | 3.0 | 0.00 | 0.00 | 0.00 | 85 | 1014.9 |
| 20260508162805 | 68 | 128 | 1.0 | 3.0 | 0.00 | 0.00 | 0.00 | 86 | 1014.9 |
| 20260508162307 | 67 | 123 | 1.0 | 4.0 | 0.00 | 0.00 | 0.00 | 84 | 1014.9 |
| 20260508161805 | 67 | 123 | 1.0 | 4.0 | 0.00 | 0.00 | 0.00 | 85 | 1014.8 |
| 20260508161305 | 67 | 180 | 1.0 | 2.0 | 0.00 | 0.00 | 0.00 | 85 | 1014.8 |
| 20260508160805 | 67 | 180 | 2.0 | 4.0 | 0.00 | 0.00 | 0.00 | 85 | 1014.9 |
| 20260508160304 | 67 | 180 | 2.0 | 7.0 | 0.00 | 0.00 | 0.00 | 85 | 1015.0 |
| 20260508155804 | 67 | 138 | 2.0 | 7.0 | 0.00 | 0.00 | 0.00 | 85 | 1015.0 |
| 20260508155306 | 67 | 105 | 2.0 | 7.0 | 0.00 | 0.00 | 0.00 | 84 | 1015.1 |
| 20260508155039 | 67 | 124 | 2.0 | 7.0 | 0.00 | 0.00 | 0.00 | 85 | 1015.1 |
| 20260508154305 | 67 | 126 | 3.0 | 7.0 | 0.00 | 0.00 | 0.00 | 84 | 1015.1 |
| 20260508153805 | 67 | 138 | 3.0 | 6.0 | 0.00 | 0.00 | 0.00 | 84 | 1015.3 |
| 20260508153757 | 67 | 177 | 3.0 | 7.0 | 0.00 | 0.00 | 0.00 | 85 | 1015.3 |
| 20260508152803 | 67 | 0 | 3.0 | 7.0 | 0.00 | 0.00 | 0.00 | 84 | 1015.3 |
| 20260508152256 | 67 | 133 | 2.0 | 5.0 | 0.00 | 0.00 | 0.00 | 84 | 1015.3 |
| 20260508151754 | 67 | 113 | 2.0 | 5.0 | 0.00 | 0.00 | 0.00 | 85 | 1015.1 |
| 20260508151252 | 67 | 113 | 2.0 | 5.0 | 0.00 | 0.00 | 0.00 | 85 | 1015.1 |
| 20260508150749 | 67 | 138 | 3.0 | 5.0 | 0.00 | 0.00 | 0.00 | 86 | 1015.2 |
| 20260508150247 | 66 | 104 | 3.0 | 6.0 | 0.00 | 0.00 | 0.00 | 85 | 1015.2 |
| 20260508145747 | 66 | 131 | 2.0 | 6.0 | 0.00 | 0.00 | 0.00 | 86 | 1015.2 |
| 20260508145508 | 66 | 138 | 2.0 | 5.0 | 0.00 | 0.00 | 0.00 | 86 | 1015.2 |
| 20260508144746 | 66 | 80 | 1.0 | 3.0 | 0.00 | 0.00 | 0.00 | 85 | 1015.1 |
| 20260508144243 | 65 | 38 | 1.0 | 3.0 | 0.00 | 0.00 | 0.00 | 86 | 1015.0 |
| 20260508143744 | 65 | 68 | 1.0 | 3.0 | 0.00 | 0.00 | 0.00 | 86 | 1015.0 |
| 20260508143242 | 65 | 66 | 1.0 | 4.0 | 0.00 | 0.00 | 0.00 | 87 | 1015.0 |
| 20260508142741 | 64 | 63 | 2.0 | 4.0 | 0.00 | 0.00 | 0.00 | 87 | 1015.1 |
| 20260508142508 | 64 | 55 | 2.0 | 4.0 | 0.00 | 0.00 | 0.00 | 87 | 1015.2 |
| 20260508141738 | 64 | 97 | 1.0 | 4.0 | 0.00 | 0.00 | 0.00 | 87 | 1015.3 |
| 20260508141236 | 64 | 111 | 0.0 | 4.0 | 0.00 | 0.00 | 0.00 | 88 | 1015.2 |
| 20260508140737 | 63 | 111 | 0.0 | 4.0 | 0.00 | 0.00 | 0.00 | 87 | 1015.3 |
| 20260508140725 | 64 | 111 | 1.0 | 4.0 | 0.00 | 0.00 | 0.00 | 87 | 1015.2 |
| 20260508135735 | 64 | 112 | 2.0 | 4.0 | 0.00 | 0.00 | 0.00 | 87 | 1015.1 |
| 20260508135233 | 63 | 19 | 1.0 | 5.0 | 0.00 | 0.00 | 0.00 | 88 | 1015.0 |
| 20260508134732 | 63 | 28 | 2.0 | 5.0 | 0.00 | 0.00 | 0.00 | 89 | 1015.0 |
| 20260508134232 | 62 | 32 | 2.0 | 4.0 | 0.00 | 0.00 | 0.00 | 89 | 1014.9 |
| 20260508133728 | 62 | 103 | 2.0 | 4.0 | 0.00 | 0.00 | 0.00 | 90 | 1015.1 |
| 20260508133448 | 62 | 109 | 1.0 | 4.0 | 0.00 | 0.00 | 0.00 | 90 | 1015.5 |
| 20260508132716 | 61 | 80 | 1.0 | 3.0 | 0.00 | 0.00 | 0.00 | 90 | 1015.7 |
| 20260508132210 | 61 | 79 | 1.0 | 3.0 | 0.00 | 0.00 | 0.00 | 91 | 1015.7 |
| 20260508131711 | 61 | 78 | 1.0 | 3.0 | 0.00 | 0.00 | 0.00 | 92 | 1015.7 |
| 20260508131208 | 61 | 78 | 1.0 | 3.0 | 0.00 | 0.00 | 0.00 | 92 | 1015.7 |
| 20260508130709 | 60 | 52 | 0.0 | 2.0 | 0.00 | 0.00 | 0.00 | 92 | 1015.7 |
| 20260508130208 | 60 | 52 | 0.0 | 0.0 | 0.00 | 0.00 | 0.00 | 93 | 1015.5 |
| 20260508125707 | 60 | 52 | 0.0 | 0.0 | 0.00 | 0.00 | 0.00 | 93 | 1015.5 |
| 20260508125206 | 60 | 52 | 0.0 | 0.0 | 0.00 | 0.00 | 0.00 | 93 | 1015.6 |
| 20260508124705 | 60 | 52 | 0.0 | 0.0 | 0.00 | 0.00 | 0.00 | 93 | 1015.6 |
| 20260508124440 | 60 | 52 | 0.0 | 0.0 | 0.00 | 0.00 | 0.00 | 93 | 1015.6 |
| 20260508123705 | 59 | 52 | 0.0 | 0.0 | 0.00 | 0.00 | 0.00 | 93 | 1015.7 |
| 20260508123206 | 59 | 52 | 0.0 | 0.0 | 0.00 | 0.00 | 0.00 | 94 | 1015.7 |
| 20260508123156 | 59 | 52 | 0.0 | 1.0 | 0.00 | 0.00 | 0.00 | 94 | 1015.8 |
| 20260508122429 | 59 | 51 | 0.0 | 1.0 | 0.00 | 0.00 | 0.00 | 94 | 1015.8 |
| 20260508121706 | 59 | 52 | 1.0 | 2.0 | 0.00 | 0.00 | 0.00 | 94 | 1015.9 |
| 20260508121205 | 59 | 52 | 1.0 | 2.0 | 0.00 | 0.00 | 0.00 | 94 | 1015.8 |
| 20260508120707 | 59 | 51 | 0.0 | 1.0 | 0.00 | 0.00 | 0.00 | 94 | 1015.9 |
| 20260508120206 | 59 | 51 | 0.0 | 1.0 | 0.00 | 0.00 | 0.00 | 93 | 1016.0 |
| 20260508115705 | 59 | 51 | 0.0 | 1.0 | 0.00 | 0.00 | 0.00 | 94 | 1016.2 |
| 20260508115206 | 59 | 51 | 0.0 | 2.0 | 0.00 | 0.00 | 0.00 | 94 | 1016.1 |
| 20260508114705 | 59 | 52 | 1.0 | 3.0 | 0.00 | 0.00 | 0.00 | 94 | 1016.0 |
| 20260508114204 | 59 | 51 | 1.0 | 3.0 | 0.00 | 0.00 | 0.00 | 94 | 1016.1 |
| 20260508113711 | 59 | 52 | 1.0 | 4.0 | 0.00 | 0.00 | 0.00 | 94 | 1016.3 |
| 20260508113211 | 59 | 19 | 2.0 | 4.0 | 0.00 | 0.00 | 0.00 | 94 | 1016.2 |
| 20260508112713 | 59 | 31 | 1.0 | 3.0 | 0.00 | 0.00 | 0.00 | 94 | 1016.2 |
| 20260508112426 | 59 | 21 | 1.0 | 3.0 | 0.00 | 0.00 | 0.00 | 94 | 1016.3 |
| 20260508111657 | 59 | 21 | 1.0 | 4.0 | 0.00 | 0.00 | 0.00 | 94 | 1016.2 |
| 20260508111157 | 59 | 21 | 2.0 | 5.0 | 0.00 | 0.00 | 0.00 | 94 | 1016.2 |
| 20260508110656 | 59 | 336 | 2.0 | 5.0 | 0.00 | 0.00 | 0.00 | 94 | 1016.2 |
| 20260508110429 | 59 | 9 | 2.0 | 6.0 | 0.00 | 0.00 | 0.00 | 94 | 1016.0 |
| 20260508105918 | 59 | 343 | 2.0 | 6.0 | 0.00 | 0.00 | 0.00 | 94 | 1016.0 |
| 20260508105152 | 59 | 350 | 2.0 | 5.0 | 0.00 | 0.00 | 0.00 | 94 | 1015.8 |
| 20260508104651 | 59 | 25 | 2.0 | 5.0 | 0.00 | 0.00 | 0.00 | 94 | 1015.9 |
| 20260508104151 | 59 | 16 | 2.0 | 5.0 | 0.00 | 0.00 | 0.00 | 94 | 1016.1 |
| 20260508103651 | 59 | 10 | 2.0 | 4.0 | 0.00 | 0.00 | 0.00 | 94 | 1015.9 |
| 20260508103425 | 59 | 28 | 1.0 | 4.0 | 0.00 | 0.00 | 0.00 | 94 | 1015.9 |
| 20260508102652 | 59 | 339 | 1.0 | 3.0 | 0.00 | 0.00 | 0.00 | 94 | 1016.1 |
| 20260508102152 | 59 | 339 | 1.0 | 4.0 | 0.00 | 0.00 | 0.00 | 94 | 1016.2 |
| 20260508101651 | 59 | 338 | 1.0 | 4.0 | 0.00 | 0.00 | 0.00 | 93 | 1016.5 |
| 20260508101416 | 59 | 12 | 1.0 | 3.0 | 0.00 | 0.00 | 0.00 | 93 | 1016.6 |
| 20260508100651 | 59 | 9 | 1.0 | 3.0 | 0.00 | 0.00 | 0.00 | 93 | 1016.6 |
| 20260508100149 | 59 | 9 | 1.0 | 3.0 | 0.00 | 0.00 | 0.00 | 92 | 1016.8 |
| 20260508095649 | 59 | 9 | 1.0 | 3.0 | 0.00 | 0.00 | 0.00 | 92 | 1016.8 |
| 20260508095149 | 60 | 11 | 1.0 | 4.0 | 0.00 | 0.00 | 0.00 | 92 | 1016.7 |
| 20260508094917 | 60 | 355 | 2.0 | 4.0 | 0.00 | 0.00 | 0.00 | 92 | 1016.9 |
| 20260508094145 | 60 | 0 | 2.0 | 5.0 | 0.00 | 0.00 | 0.00 | 92 | 1016.9 |
| 20260508093645 | 60 | 0 | 2.0 | 5.0 | 0.00 | 0.00 | 0.00 | 91 | 1016.9 |
| 20260508093146 | 60 | 334 | 2.0 | 4.0 | 0.00 | 0.00 | 0.00 | 91 | 1016.9 |
| 20260508092646 | 60 | 348 | 2.0 | 3.0 | 0.00 | 0.00 | 0.00 | 91 | 1016.9 |
| 20260508092146 | 60 | 330 | 1.0 | 3.0 | 0.00 | 0.00 | 0.00 | 91 | 1016.8 |
| 20260508091646 | 60 | 331 | 1.0 | 3.0 | 0.00 | 0.00 | 0.00 | 90 | 1016.7 |
| 20260508091145 | 60 | 334 | 2.0 | 3.0 | 0.00 | 0.00 | 0.00 | 90 | 1016.6 |
| 20260508090646 | 60 | 335 | 1.0 | 3.0 | 0.00 | 0.00 | 0.00 | 90 | 1016.3 |
| 20260508090145 | 59 | 336 | 1.0 | 2.0 | 0.00 | 0.00 | 0.00 | 90 | 1016.3 |
| 20260508085644 | 59 | 336 | 0.0 | 2.0 | 0.00 | 0.00 | 0.00 | 91 | 1016.5 |
| 20260508085411 | 59 | 336 | 0.0 | 1.0 | 0.00 | 0.00 | 0.00 | 91 | 1016.3 |
| 20260508084905 | 59 | 336 | 0.0 | 0.0 | 0.00 | 0.00 | 0.00 | 91 | 1016.0 |
| 20260508084143 | 59 | 336 | 0.0 | 1.0 | 0.00 | 0.00 | 0.00 | 92 | 1016.1 |
| 20260508083645 | 59 | 336 | 0.0 | 1.0 | 0.00 | 0.00 | 0.00 | 92 | 1016.0 |
| 20260508083408 | 59 | 336 | 0.0 | 2.0 | 0.00 | 0.00 | 0.00 | 92 | 1016.0 |
| 20260508082640 | 59 | 336 | 0.0 | 2.0 | 0.00 | 0.00 | 0.00 | 92 | 1016.3 |
| 20260508082137 | 59 | 336 | 0.0 | 2.0 | 0.00 | 0.00 | 0.00 | 92 | 1016.3 |
| 20260508081637 | 59 | 336 | 0.0 | 2.0 | 0.00 | 0.00 | 0.00 | 93 | 1016.3 |
| 20260508081143 | 59 | 342 | 0.0 | 1.0 | 0.00 | 0.00 | 0.00 | 93 | 1016.1 |
| 20260508080642 | 58 | 342 | 0.0 | 1.0 | 0.00 | 0.00 | 0.00 | 93 | 1016.0 |
| 20260508080134 | 58 | 342 | 0.0 | 1.0 | 0.00 | 0.00 | 0.00 | 93 | 1015.9 |
| 20260508075640 | 58 | 342 | 0.0 | 2.0 | 0.00 | 0.00 | 0.00 | 93 | 1015.8 |
| 20260508075132 | 58 | 342 | 0.0 | 2.0 | 0.00 | 0.00 | 0.00 | 94 | 1015.9 |
| 20260508074632 | 58 | 342 | 0.0 | 1.0 | 0.00 | 0.00 | 0.00 | 94 | 1015.9 |
| 20260508074128 | 58 | 342 | 0.0 | 1.0 | 0.00 | 0.00 | 0.00 | 94 | 1015.9 |
| 20260508073625 | 58 | 342 | 1.0 | 4.0 | 0.00 | 0.00 | 0.00 | 94 | 1015.8 |
| 20260508073124 | 58 | 342 | 1.0 | 4.0 | 0.00 | 0.00 | 0.00 | 94 | 1015.8 |
| 20260508072622 | 58 | 328 | 0.0 | 0.0 | 0.00 | 0.00 | 0.00 | 94 | 1015.8 |
| 20260508072121 | 58 | 328 | 0.0 | 2.0 | 0.00 | 0.00 | 0.00 | 94 | 1016.0 |
| 20260508071618 | 58 | 328 | 0.0 | 2.0 | 0.00 | 0.00 | 0.00 | 93 | 1016.0 |
| 20260508071124 | 58 | 328 | 0.0 | 1.0 | 0.00 | 0.00 | 0.00 | 93 | 1016.1 |
| 20260508070612 | 58 | 328 | 0.0 | 2.0 | 0.00 | 0.00 | 0.00 | 93 | 1016.1 |
| 20260508070115 | 58 | 327 | 0.0 | 3.0 | 0.00 | 0.00 | 0.00 | 93 | 1016.2 |
| 20260508065611 | 58 | 328 | 1.0 | 3.0 | 0.00 | 0.00 | 0.00 | 93 | 1016.5 |
| 20260508065111 | 57 | 327 | 1.0 | 3.0 | 0.00 | 0.00 | 0.00 | 93 | 1016.8 |
| 20260508064611 | 57 | 326 | 0.0 | 2.0 | 0.00 | 0.00 | 0.00 | 93 | 1016.8 |
| 20260508064112 | 57 | 327 | 0.0 | 2.0 | 0.00 | 0.00 | 0.00 | 93 | 1016.8 |
| 20260508063611 | 57 | 327 | 0.0 | 1.0 | 0.00 | 0.00 | 0.00 | 93 | 1017.0 |
| 20260508063110 | 57 | 327 | 0.0 | 0.0 | 0.00 | 0.00 | 0.00 | 93 | 1017.1 |
| 20260508062609 | 57 | 327 | 0.0 | 0.0 | 0.00 | 0.00 | 0.00 | 93 | 1017.1 |
| 20260508062107 | 58 | 327 | 0.0 | 0.0 | 0.00 | 0.00 | 0.00 | 93 | 1017.0 |
| 20260508061826 | 58 | 327 | 0.0 | 2.0 | 0.00 | 0.00 | 0.00 | 93 | 1017.0 |
| 20260508061057 | 58 | 327 | 0.0 | 2.0 | 0.00 | 0.00 | 0.00 | 93 | 1017.0 |
| 20260508060816 | 58 | 327 | 1.0 | 3.0 | 0.00 | 0.00 | 0.00 | 93 | 1017.2 |
| 20260508060045 | 58 | 327 | 1.0 | 3.0 | 0.00 | 0.00 | 0.00 | 92 | 1017.1 |
| 20260508055540 | 58 | 329 | 1.0 | 3.0 | 0.00 | 0.00 | 0.00 | 92 | 1017.2 |
| 20260508055040 | 58 | 329 | 1.0 | 3.0 | 0.00 | 0.00 | 0.00 | 93 | 1017.3 |
| 20260508054535 | 58 | 329 | 0.0 | 2.0 | 0.00 | 0.00 | 0.00 | 92 | 1017.2 |
| 20260508054033 | 58 | 355 | 0.0 | 0.0 | 0.00 | 0.00 | 0.00 | 92 | 1016.8 |
| 20260508053534 | 58 | 355 | 0.0 | 0.0 | 0.00 | 0.00 | 0.00 | 92 | 1016.8 |
| 20260508053033 | 58 | 355 | 0.0 | 1.0 | 0.00 | 0.00 | 0.00 | 92 | 1016.9 |
| 20260508052533 | 58 | 355 | 0.0 | 2.0 | 0.00 | 0.00 | 0.00 | 92 | 1016.9 |
| 20260508052033 | 58 | 355 | 0.0 | 2.0 | 0.00 | 0.00 | 0.00 | 92 | 1017.0 |
| 20260508051534 | 58 | 355 | 1.0 | 3.0 | 0.00 | 0.00 | 0.00 | 92 | 1017.1 |
| 20260508051034 | 58 | 355 | 1.0 | 3.0 | 0.00 | 0.00 | 0.00 | 92 | 1016.9 |
| 20260508050534 | 58 | 351 | 2.0 | 4.0 | 0.00 | 0.00 | 0.00 | 92 | 1016.9 |
| 20260508050034 | 58 | 350 | 1.0 | 4.0 | 0.00 | 0.00 | 0.00 | 92 | 1017.0 |
| 20260508045535 | 58 | 347 | 1.0 | 3.0 | 0.00 | 0.00 | 0.00 | 92 | 1016.9 |
| 20260508045034 | 58 | 240 | 1.0 | 2.0 | 0.00 | 0.00 | 0.00 | 92 | 1017.1 |
| 20260508044534 | 58 | 240 | 0.0 | 3.0 | 0.00 | 0.00 | 0.00 | 92 | 1017.2 |
| 20260508044254 | 58 | 240 | 0.0 | 3.0 | 0.00 | 0.00 | 0.00 | 92 | 1017.1 |
| 20260508043533 | 58 | 240 | 1.0 | 4.0 | 0.00 | 0.00 | 0.00 | 91 | 1017.3 |
| 20260508043035 | 58 | 240 | 1.0 | 4.0 | 0.00 | 0.00 | 0.00 | 92 | 1017.7 |
| 20260508042531 | 58 | 166 | 0.0 | 4.0 | 0.00 | 0.00 | 0.00 | 91 | 1017.7 |
| 20260508042025 | 58 | 154 | 0.0 | 0.0 | 0.00 | 0.00 | 0.00 | 91 | 1017.2 |
| 20260508041519 | 58 | 154 | 0.0 | 0.0 | 0.00 | 0.00 | 0.00 | 91 | 1017.2 |
| 20260508041016 | 58 | 154 | 0.0 | 0.0 | 0.00 | 0.00 | 0.00 | 90 | 1017.2 |
| 20260508040515 | 58 | 154 | 0.0 | 0.0 | 0.00 | 0.00 | 0.00 | 90 | 1017.3 |
| 20260508040015 | 58 | 154 | 0.0 | 0.0 | 0.00 | 0.00 | 0.00 | 90 | 1017.4 |
| 20260508035736 | 58 | 154 | 0.0 | 0.0 | 0.00 | 0.00 | 0.00 | 89 | 1017.5 |
| 20260508035013 | 59 | 154 | 0.0 | 0.0 | 0.00 | 0.00 | 0.00 | 89 | 1017.5 |
| 20260508034513 | 59 | 154 | 0.0 | 0.0 | 0.00 | 0.00 | 0.00 | 88 | 1017.6 |
| 20260508034014 | 59 | 154 | 0.0 | 0.0 | 0.00 | 0.00 | 0.00 | 88 | 1017.8 |
| 20260508033731 | 59 | 154 | 0.0 | 0.0 | 0.00 | 0.00 | 0.00 | 88 | 1017.9 |
| 20260508033014 | 60 | 154 | 0.0 | 0.0 | 0.00 | 0.00 | 0.00 | 87 | 1018.0 |
| 20260508032514 | 60 | 154 | 0.0 | 5.0 | 0.00 | 0.00 | 0.00 | 87 | 1017.9 |
| 20260508032014 | 60 | 154 | 1.0 | 5.0 | 0.00 | 0.00 | 0.00 | 87 | 1017.8 |
| 20260508031510 | 60 | 154 | 1.0 | 5.0 | 0.00 | 0.00 | 0.00 | 86 | 1017.5 |
| 20260508031011 | 60 | 155 | 1.0 | 5.0 | 0.00 | 0.00 | 0.00 | 86 | 1017.5 |
| 20260508030510 | 60 | 306 | 1.0 | 4.0 | 0.00 | 0.00 | 0.00 | 86 | 1017.6 |
| 20260508030010 | 60 | 304 | 2.0 | 4.0 | 0.00 | 0.00 | 0.00 | 86 | 1017.8 |
| 20260508025509 | 60 | 305 | 1.0 | 4.0 | 0.00 | 0.00 | 0.00 | 85 | 1017.5 |
| 20260508025010 | 60 | 11 | 0.0 | 3.0 | 0.00 | 0.00 | 0.00 | 85 | 1016.9 |
| 20260508024509 | 61 | 11 | 0.0 | 2.0 | 0.00 | 0.00 | 0.00 | 85 | 1016.5 |
| 20260508024236 | 61 | 11 | 0.0 | 4.0 | 0.00 | 0.00 | 0.00 | 84 | 1016.6 |
| 20260508023510 | 61 | 11 | 0.0 | 4.0 | 0.00 | 0.00 | 0.00 | 84 | 1016.5 |
| 20260508023011 | 61 | 11 | 1.0 | 4.0 | 0.00 | 0.00 | 0.00 | 83 | 1016.3 |
| 20260508022509 | 61 | 11 | 2.0 | 4.0 | 0.00 | 0.00 | 0.00 | 83 | 1016.0 |
| 20260508022009 | 61 | 14 | 2.0 | 4.0 | 0.00 | 0.00 | 0.00 | 83 | 1015.7 |
| 20260508021510 | 61 | 22 | 2.0 | 5.0 | 0.00 | 0.00 | 0.00 | 83 | 1015.7 |
| 20260508021247 | 61 | 25 | 1.0 | 4.0 | 0.00 | 0.00 | 0.00 | 82 | 1015.8 |
| 20260508021025 | 61 | 18 | 2.0 | 5.0 | 0.00 | 0.00 | 0.00 | 83 | 1015.7 |
| 20260508020010 | 62 | 34 | 1.0 | 4.0 | 0.00 | 0.00 | 0.00 | 82 | 1015.6 |
| 20260508015507 | 62 | 82 | 1.0 | 3.0 | 0.00 | 0.00 | 0.00 | 82 | 1015.7 |
| 20260508015446 | 62 | 81 | 1.0 | 4.0 | 0.00 | 0.00 | 0.00 | 82 | 1015.6 |
| 20260508014725 | 62 | 82 | 2.0 | 4.0 | 0.00 | 0.00 | 0.00 | 82 | 1015.8 |
| 20260508014001 | 62 | 78 | 2.0 | 4.0 | 0.00 | 0.00 | 0.00 | 82 | 1015.5 |
| 20260508013457 | 62 | 86 | 2.0 | 5.0 | 0.00 | 0.00 | 0.00 | 81 | 1015.5 |
| 20260508012955 | 62 | 38 | 2.0 | 5.0 | 0.00 | 0.00 | 0.00 | 81 | 1015.9 |
| 20260508012456 | 62 | 34 | 2.0 | 5.0 | 0.00 | 0.00 | 0.00 | 80 | 1015.9 |
| 20260508011955 | 62 | 9 | 2.0 | 5.0 | 0.00 | 0.00 | 0.00 | 80 | 1015.7 |
| 20260508011455 | 62 | 16 | 2.0 | 5.0 | 0.00 | 0.00 | 0.00 | 79 | 1015.7 |
| 20260508010956 | 62 | 60 | 2.0 | 6.0 | 0.00 | 0.00 | 0.00 | 79 | 1015.6 |
| 20260508010454 | 63 | 63 | 3.0 | 6.0 | 0.00 | 0.00 | 0.00 | 79 | 1015.5 |
| 20260508005951 | 63 | 96 | 2.0 | 6.0 | 0.00 | 0.00 | 0.00 | 80 | 1015.7 |
| 20260508005452 | 63 | 89 | 2.0 | 6.0 | 0.00 | 0.00 | 0.00 | 80 | 1015.8 |
| 20260508004952 | 64 | 83 | 2.0 | 4.0 | 0.00 | 0.00 | 0.00 | 79 | 1015.9 |
| 20260508004452 | 64 | 70 | 1.0 | 4.0 | 0.00 | 0.00 | 0.00 | 78 | 1016.2 |
| 20260508003950 | 64 | 71 | 2.0 | 5.0 | 0.00 | 0.00 | 0.00 | 77 | 1016.3 |
| 20260508003449 | 64 | 20 | 2.0 | 5.0 | 0.00 | 0.00 | 0.00 | 77 | 1016.6 |
| 20260508002950 | 64 | 17 | 3.0 | 5.0 | 0.00 | 0.00 | 0.00 | 77 | 1016.7 |
| 20260508002721 | 64 | 42 | 2.0 | 5.0 | 0.00 | 0.00 | 0.00 | 77 | 1016.3 |
| 20260508001950 | 65 | 48 | 2.0 | 4.0 | 0.00 | 0.00 | 0.00 | 76 | 1016.5 |
| 20260508001449 | 65 | 73 | 1.0 | 4.0 | 0.00 | 0.00 | 0.00 | 76 | 1016.5 |
| 20260508000943 | 65 | 46 | 2.0 | 4.0 | 0.00 | 0.00 | 0.00 | 76 | 1016.9 |
| 20260508000706 | 65 | 34 | 2.0 | 4.0 | 0.00 | 0.00 | 0.00 | 75 | 1016.9 |
| 20260508000208 | 65 | 11 | 1.0 | 4.0 | 0.00 | 0.00 | 0.00 | 75 | 1016.9 |
| 20260507235438 | 65 | 53 | 2.0 | 5.0 | 0.00 | 0.00 | 0.00 | 75 | 1017.0 |
| 20260507234937 | 65 | 349 | 2.0 | 5.0 | 0.00 | 0.00 | 0.00 | 75 | 1017.4 |
| 20260507234438 | 66 | 338 | 2.0 | 5.0 | 0.00 | 0.00 | 0.00 | 74 | 1017.5 |
| 20260507233935 | 66 | 344 | 2.0 | 5.0 | 0.00 | 0.00 | 0.00 | 73 | 1017.6 |
| 20260507233434 | 66 | 9 | 2.0 | 4.0 | 0.00 | 0.00 | 0.00 | 74 | 1017.5 |
| 20260507232936 | 66 | 323 | 1.0 | 3.0 | 0.00 | 0.00 | 0.00 | 74 | 1017.6 |
| 20260507232435 | 65 | 84 | 1.0 | 3.0 | 0.00 | 0.00 | 0.00 | 75 | 1017.5 |
| 20260507232155 | 65 | 85 | 2.0 | 4.0 | 0.00 | 0.00 | 0.00 | 74 | 1017.4 |
| 20260507231435 | 65 | 28 | 2.0 | 5.0 | 0.00 | 0.00 | 0.00 | 75 | 1017.1 |
| 20260507230935 | 65 | 18 | 2.0 | 5.0 | 0.00 | 0.00 | 0.00 | 74 | 1016.7 |
| 20260507230701 | 66 | 92 | 3.0 | 7.0 | 0.00 | 0.00 | 0.00 | 72 | 1016.8 |
| 20260507225935 | 65 | 15 | 3.0 | 7.0 | 0.00 | 0.00 | 0.00 | 72 | 1017.1 |
| 20260507225435 | 65 | 27 | 2.0 | 5.0 | 0.00 | 0.00 | 0.00 | 71 | 1017.3 |
| 20260507224934 | 65 | 93 | 3.0 | 9.0 | 0.00 | 0.00 | 0.00 | 71 | 1017.3 |
| 20260507224434 | 65 | 95 | 3.0 | 9.0 | 0.00 | 0.00 | 0.00 | 71 | 1017.4 |
| 20260507223934 | 65 | 63 | 3.0 | 6.0 | 0.00 | 0.00 | 0.00 | 71 | 1017.5 |
| 20260507223427 | 65 | 102 | 2.0 | 6.0 | 0.00 | 0.00 | 0.00 | 71 | 1017.5 |
| 20260507222921 | 65 | 40 | 1.0 | 5.0 | 0.00 | 0.00 | 0.00 | 72 | 1017.7 |
| 20260507222638 | 65 | 350 | 2.0 | 4.0 | 0.00 | 0.00 | 0.00 | 74 | 1017.8 |
| 20260507221909 | 65 | 355 | 2.0 | 4.0 | 0.00 | 0.00 | 0.00 | 73 | 1017.8 |
| 20260507221409 | 65 | 39 | 2.0 | 7.0 | 0.00 | 0.00 | 0.00 | 72 | 1017.8 |
| 20260507220909 | 65 | 89 | 3.0 | 8.0 | 0.00 | 0.00 | 0.00 | 73 | 1017.8 |
| 20260507220409 | 65 | 65 | 3.0 | 8.0 | 0.00 | 0.00 | 0.00 | 72 | 1017.7 |
| 20260507215907 | 65 | 20 | 3.0 | 9.0 | 0.00 | 0.00 | 0.00 | 72 | 1018.0 |
| 20260507215407 | 65 | 27 | 4.0 | 10.0 | 0.00 | 0.00 | 0.00 | 72 | 1017.8 |
| 20260507214906 | 65 | 74 | 5.0 | 10.0 | 0.00 | 0.00 | 0.00 | 72 | 1018.0 |
| 20260507214408 | 65 | 351 | 4.0 | 10.0 | 0.00 | 0.00 | 0.00 | 73 | 1018.4 |
| 20260507214128 | 65 | 325 | 3.0 | 10.0 | 0.00 | 0.00 | 0.00 | 75 | 1018.4 |
| 20260507213406 | 65 | 86 | 3.0 | 8.0 | 0.00 | 0.00 | 0.00 | 73 | 1018.3 |
| 20260507213133 | 65 | 322 | 4.0 | 10.0 | 0.00 | 0.00 | 0.00 | 75 | 1018.6 |
| 20260507212407 | 65 | 351 | 4.0 | 10.0 | 0.00 | 0.00 | 0.00 | 75 | 1018.5 |
| 20260507212136 | 65 | 349 | 4.0 | 9.0 | 0.00 | 0.00 | 0.00 | 75 | 1018.3 |
| 20260507211406 | 64 | 9 | 4.0 | 9.0 | 0.00 | 0.00 | 0.00 | 75 | 1018.3 |
| 20260507210905 | 65 | 346 | 4.0 | 8.0 | 0.00 | 0.00 | 0.00 | 75 | 1018.3 |
| 20260507210407 | 65 | 9 | 4.0 | 8.0 | 0.00 | 0.00 | 0.00 | 75 | 1018.5 |
| 20260507210130 | 64 | 14 | 3.0 | 7.0 | 0.00 | 0.00 | 0.00 | 76 | 1018.6 |
| 20260507205406 | 64 | 40 | 3.0 | 9.0 | 0.00 | 0.00 | 0.00 | 76 | 1018.3 |
| 20260507205131 | 64 | 17 | 4.0 | 9.0 | 0.00 | 0.00 | 0.00 | 76 | 1018.4 |
| 20260507204403 | 64 | 23 | 3.0 | 9.0 | 0.00 | 0.00 | 0.00 | 75 | 1018.0 |
| 20260507203901 | 64 | 19 | 4.0 | 9.0 | 0.00 | 0.00 | 0.00 | 76 | 1018.4 |
| 20260507203358 | 64 | 10 | 5.0 | 10.0 | 0.00 | 0.00 | 0.00 | 76 | 1018.4 |
| 20260507202858 | 64 | 350 | 4.0 | 10.0 | 0.00 | 0.00 | 0.00 | 75 | 1018.6 |
| 20260507202359 | 64 | 15 | 3.0 | 6.0 | 0.00 | 0.00 | 0.00 | 76 | 1018.7 |
| 20260507202348 | 64 | 28 | 2.0 | 6.0 | 0.00 | 0.00 | 0.00 | 76 | 1018.7 |
| 20260507201359 | 64 | 84 | 2.0 | 6.0 | 0.00 | 0.00 | 0.00 | 76 | 1019.0 |
| 20260507200858 | 64 | 41 | 3.0 | 7.0 | 0.00 | 0.00 | 0.00 | 75 | 1019.1 |
| 20260507200359 | 64 | 46 | 4.0 | 8.0 | 0.00 | 0.00 | 0.00 | 76 | 1019.0 |
| 20260507195857 | 64 | 324 | 5.0 | 10.0 | 0.00 | 0.00 | 0.00 | 76 | 1018.4 |
| 20260507195624 | 64 | 0 | 4.0 | 10.0 | 0.00 | 0.00 | 0.00 | 76 | 1018.5 |
| 20260507194857 | 64 | 28 | 3.0 | 9.0 | 0.00 | 0.00 | 0.00 | 75 | 1018.7 |
| 20260507194357 | 64 | 38 | 4.0 | 9.0 | 0.00 | 0.00 | 0.00 | 75 | 1018.9 |
| 20260507193855 | 64 | 349 | 3.0 | 9.0 | 0.00 | 0.00 | 0.00 | 76 | 1019.1 |
| 20260507193355 | 64 | 351 | 3.0 | 10.0 | 0.00 | 0.00 | 0.00 | 75 | 1019.5 |
| 20260507192853 | 64 | 346 | 3.0 | 10.0 | 0.00 | 0.00 | 0.00 | 75 | 1019.7 |
| 20260507192614 | 64 | 321 | 3.0 | 10.0 | 0.00 | 0.00 | 0.00 | 75 | 1019.7 |